www.pogodaiklimat.ru

Погода и климат >> Архив погоды >> Греция >> Souda


ПОГОДА в Souda

  • Прогноз погоды в Souda
  • Монитор погоды в Souda
  • Климат города

АРХИВ ПОГОДЫ в Souda

Время (UTC), дата Ветер
(напр.,м/с)
 
Видим.   Явления Облачность Т
(С)
Тd
(С)
f
(%)
Тe
(С)
Тes
(С)
Комфортность P
(гПа)
Po
(гПа)
Тmin
(С)
Tmax
(С)
R
(мм)
R24
(мм)
S
(см)
00 16.10 З 2
{4}
10 км 1/1 600 м
[Cu hum]
+14.8 +12.6 87 +14 +14 1023.5 1005.3
03 16.10 З 2
{4}
10 км 1/1 600 м
[Cu hum]
+15.2 +13.1 87 +15 +15 1023.0 1004.9
06 16.10 штиль 0
{4}
10 км 1/1 600 м
[Cu hum]
+16.8 +14.4 86 +17 +18 1023.6 1005.5 +14.2
09 16.10
{6}
10 км 1/1 600 м
[Cu hum]
+22.4 +17.2 72 1024.2 1006.3
12 16.10 С 4
{10}
10 км 1/1 600 м
[Cu hum]
+23.0 +16.9 69 +28 +33 душно 1023.5 1005.8
15 16.10 СЗ 3
{8}
10 км 1/1 600 м
[Cu hum]
+22.8 +17.7 73 +28 +29 душно 1023.4 1005.5
18 16.10 СЗ 3
{7}
10 км 1/1 600 м
[Cu hum]
+18.8 +16.8 88 +20 +20 1023.6 1005.6 +23.2
21 16.10 З 2
{4}
10 км 1/1 600 м
[Cu hum]
+17.0 +14.9 87 +17 +17 1024.0 1006.0
00 17.10 З 2
{4}
10 км 1/1 600 м
[Cu hum]
+17.0 +15.6 91 +17 +17 1023.6 1005.6
03 17.10 штиль 0
{4}
10 км 1/1 600 м
[Cu med, cong]
+16.6 +15.2 91 +16 +16 1023.0 1004.9
06 17.10 штиль 0
{3}
10 км 4/4 600 м
[Cu hum]
+17.2 +14.8 86 +17 +18 1022.9 1004.9 +15.8
09 17.10 С 5
{8}
10 км 6/6 600 м
[Cu Sc]
+21.8 +16.9 74 +26 +28 душно 1023.4 1005.5
12 17.10 СВ 5
{9}
10 км 4/4 600 м
[Cu hum]
+22.0 +15.3 66 +26 +28 душно 1022.0 1004.2
15 17.10
{8}
10 км 1/1 600 м
[Cu hum]
+21.0 +16.0 73 1021.1 1003.4
18 17.10 В 3
{8}
10 км 1/1 600 м
[Cu hum]
+18.0 +15.3 84 +18 +18 1021.4 1003.4 +22.4
21 17.10 штиль 0
{4}
10 км 1/1 600 м
[Cu hum]
+15.8 +14.1 90 +16 +16 1021.1 1003.0
00 18.10 штиль 0
{2}
10 км 1/1 600 м
[Cu hum]
+14.8 +13.0 89 +14 +14 1021.0 1002.7
03 18.10 штиль 0
{3}
10 км 1/1 600 м
[Cu hum]
+14.0 +12.5 91 +14 +14 1019.9 1001.6
06 18.10 штиль 0
{3}
10 км 3/1 600 м
[Cu hum Ac trans]
+16.0 +13.5 85 +16 +17 1019.8 1001.6 +14.0
09 18.10 ЮВ 2
{6}
10 км 3/1 600 м
[Cu hum Ci fib]
+21.8 +16.9 74 +26 +33 душно 1019.4 1001.6
12 18.10 СВ 5
{9}
10 км 1/1 600 м
[Cu hum]
+23.4 +15.9 63 +28 +32 душно 1017.8 1000.2
15 18.10 СВ 2
{7}
10 км 4/4 600 м
[Sc diur, vesp]
+21.0 +18.1 84 +26 +26 душно 1017.8 1000.0
18 18.10 ЮЗ 2
{5}
10 км 1/1 600 м
[Cu hum]
+17.8 +16.5 92 +18 +18 1018.7 1000.7 +23.6
21 18.10 штиль 0
{3}
10 км 1/1 600 м
[Cu hum]
+16.6 +15.6 94 +16 +16 1018.6 1000.5
00 19.10 штиль 0
{2}
10 км 1/1 600 м
[Cu hum]
+15.0 +13.2 89 +15 +15 1018.0 999.9
03 19.10 З 3
{4}
10 км 1/1 600 м
[Cu hum]
+14.6 +13.5 93 +14 +14 1017.8 999.5
06 19.10 штиль 0
{3}
10 км 1/1 600 м
[Cu hum]
+16.6 +13.4 81 +16 +18 1018.9 1000.7 +14.4
09 19.10 В 3
{6}
10 км 1/1 600 м
[Cu hum]
+22.8 +18.4 76 +28 +35 душно 1018.7 1001.0
12 19.10
{8}
10 км 1/1 600 м
[Cu hum]
+24.6 +18.3 68 1017.8 1000.2
15 19.10 З 3
{6}
10 км ясно +22.6 +17.1 71 +27 +28 душно 1017.9 1000.2
18 19.10 штиль 0
{4}
10 км ясно +17.8 +15.4 86 +18 +18 1018.9 1000.9 +24.6
21 19.10 штиль 0
{1}
10 км ясно +15.8 +14.7 93 +16 +16 1019.0 1000.9
00 20.10 штиль 0
{3}
10 км ясно +15.2 +14.1 93 +15 +15 1018.3 1000.2
03 20.10 З 2
{3}
10 км ясно +14.8 +13.7 93 +14 +14 1018.0 999.8
06 20.10 З 3
{4}
10 км ясно +17.0 +15.3 90 +17 +18 1018.3 1000.3 +14.4
09 20.10 СЗ 4
{8}
10 км 1/0
[Cs]
+23.4 +18.3 73 +29 +35 душно 1018.9 1001.3
12 20.10 СЗ 6
{9}
10 км 3/1 600 м
[Cu hum Ci fib]
+25.0 +18.8 68 +30 +32 душно 1017.5 1000.0
15 20.10 СЗ 4
{12}
10 км 4/1 600 м
[Cu hum Cs]
+23.0 +18.9 78 +29 +29 очень
душно
1017.4 999.8
18 20.10 З 4
{7}
10 км 1/1 600 м
[Cu hum]
+18.8 +17.5 92 +20 +20 1018.9 1000.9 +25.4
21 20.10 З 6
{8}
10 км 1/1 600 м
[Cu hum]
+19.2 +16.9 87 +21 +21 комфорт 1019.0 1001.1
00 21.10 З 4
{7}
10 км 1/1 600 м
[Cu hum]
+17.2 +15.9 92 +17 +17 1018.2 1000.2
03 21.10 СЗ 4
{8}
10 км 1/1 600 м
[Cu hum]
+17.6 +15.9 90 +17 +17 1017.3 999.3
06 21.10 З 4 10 км 4/1 750 м
[Cu hum Ci fib]
+17.4 +15.4 88 +17 +18 1017.4 999.4 +16.6
09 21.10 СЗ 4
{9}
10 км 6/1 750 м
[Cu hum Cs]
+21.4 +15.8 70 +25 +29 комфорт 1017.6 999.9
12 21.10 СЗ 5
{8}
10 км 9/1 750 м
[Cu hum Cs]
+23.8 +19.1 75 +29 +32 душно 1016.3 998.7
15 21.10 З 6
{10}
10 км 9/1 750 м
[Cu hum Ac und Cs]
+21.2 +17.0 77 +25 +25 комфорт 1015.8 998.2
18 21.10 З 5
{9}
10 км 8/1 750 м
[Cu hum Ac und Cs]
+19.2 +17.2 88 +21 +21 комфорт 1016.0 998.3 +23.8
21 21.10 З 3
{7}
10 км 3/1 600 м
[Cu hum Ac trans]
+17.8 +16.1 90 +18 +18 1016.3 998.5
00 22.10 З 3
{5}
10 км 1/1 600 м
[Cu hum]
+17.8 +15.8 88 +18 +18 1015.5 997.6
03 22.10 З 2
{5}
10 км 1/1 600 м
[Cu hum]
+16.6 +14.2 86 +17 +17 1014.9 996.9
06 22.10 З 3
{4}
10 км 1/1 600 м
[Cu hum]
+17.2 +14.4 84 +17 +18 1015.1 997.3 +15.8
09 22.10 СЗ 2
{5}
10 км ясно +23.2 +18.5 75 +29 +37 душно 1015.3 997.6
12 22.10 З 4
{8}
10 км 1/1 600 м
[Cu hum]
+25.4 +19.9 72 +31 +36 очень
душно
1014.0 996.6
15 22.10 З 4
{7}
10 км 1/1 600 м
[Cu hum]
+22.2 +19.1 83 +28 +28 душно 1013.5 995.9
18 22.10 штиль 0
{5}
10 км 1/1 600 м
[Cu hum]
+17.6 +16.6 94 +18 +18 1013.9 996.0 +25.4

 

Местоположение метеостанции Souda (Греция): широта 35.48 долгота 24.12 высота над уровнем моря 151 м.

В архиве по умолчанию представлена погода в Souda за последнюю неделю. Архивные данные за месяц целиком и за предыдущие месяцы, начиная с января 2011 года, Вы можете получить, выбрав интересующий диапазон дат из раскрывающегося списка и нажав кнопку "Ввод!".

Внимание! Время в таблицах - всемирное. Для получения местного времени необходимо прибавить поправку, которая в Souda равна 2 ч.

Смотрите также архив погоды в соседних городах и на ближайших метеорологических станциях:

Погода в Heraklion (Греция) (98 км)
Погода в Kasteli (Греция) (114 км)
Погода в Kythira (Греция) (133 км)
Погода в Milos (Греция) (141 км)
Погода в Sitia (Греция) (182 км)
Погода в Naxos (Греция) (213 км)
Погода в Kalamata (Греция) (258 км)
Погода в Methoni (Греция) (264 км)
Погода в Athens (Греция) (271 км)
Погода в El Venizelos (Греция) (272 км)

Пояснения к столбцам:

Ветер - указаны скорость ветра в м/с - средняя за 10 мин, порывы в срок и между сроками (в фигурных скобках) и направление, откуда дует ветер: С - северный, СВ - северо-восточный, В - восточный, ЮВ - юго-восточный, Ю - южный, ЮЗ - юго-западный, З - западный, СЗ - северо-западный.
Видимость - горизонтальная дальность видимости в метрах или километрах. При видимости от 1 до 10 км при отсутствии осадков обычно наблюдается дымка, при ухудшении видимости до 1 км и менее - туман. В сухую погоду видимость может ухудшаться дымом, пылью или мглою.
Явления - указаны атмосферные явления, наблюдавшиеся в срок или в последний час перед сроком; фигурными скобками обозначены явления, наблюдавшиеся между сроками (за 1-3 часа до срока); квадратными скобками обозначены град или гололедные отложения с указанием их диаметра в мм.
Облачность - указаны через наклонную черту общая и нижняя облачность в баллах и высота нижней границы облаков в метрах; квадратными скобками обозначены формы облаков: Ci - перистые, Cs - перисто-слоистые, Cc - перисто-кучевые, Ac - высококучевые, As - высокослоистые, Sc - слоисто-кучевые, Ns - слоисто-дождевые, Cu - кучевые, Cb - кучево-дождевые. Подробнее классификацию облаков см. в Атласе облаков (PDF).
T - Температура воздуха - температура, измеренная на высоте 2 м над землей.
Td - Температура точки росы - температура, при понижении до которой содержащийся в воздухе водяной пар достигнет насыщения.
f - Относительная влажность воздуха - влажноcть воздуха, измеренная на высоте 2 м над землей.
Te - Эффективная температура - температура, которую ощущает одетый по сезону человек в тени. Характеристика душности погоды. При расчете учитывается влияние влажности воздуха и скорости ветра на теплоощущения человека.
Tes - Эффективная температура на солнце - температура, которую ощущает человек, с поправкой на солнечный нагрев. Характеристика знойности погоды. Зависит от высоты солнца над горизонтом, облачности и скорости ветра. Ночью, в пасмурную погоду, а также при ветре 12 м/с и более поправка равна нулю.
P - Атмосферное давление - приведенное к уровню моря атмосферное давление.
Po - Атмосферное давление - измеренное на уровне метеостанции атмосферное давление.
Tmin - Минимальная температура - минимум температуры воздуха на высоте 2 м над землей.
Tmax - Максимальная температура - максимум температуры воздуха на высоте 2 м над землей.
R - Количество осадков - Количество выпавших осадков за период времени, мм. При наведении курсора мыши на число - период времени, за который выпало указанное количество осадков.
R24 - Количество осадков - Количество выпавших осадков за 24 часа, мм.
S - Снежный покров - Высота снежного покрова, см. При наведении курсора мыши на число - состояние снежного покрова и степень покрытия местности в баллах.